Torna al catalogo

COSMOS 1375 DEB

AttivoLEO
NORAD 17807·DEBRIS·🇷🇺 Russia

Lanciato Jun 6, 1982 da Plesetsk Cosmodrome

Loading…

Prossimi Passaggi (prossime 24 ore)

TLE

AggiornatoSource: Space-Track

Epoca: Sep 14, 2026, 22:41 UTC

1 17807U 82055AZ  26257.94560601  .00000497  00000-0  52537-3 0  9991
2 17807  65.8285 238.4242 0066143 272.8410 107.0851 13.82543161 51875

Traccia COSMOS 1375 DEB in tempo reale con AllMySat

Download on the App Store